[keps] orb07137.2l.amsat

Ray Hoad r.hoad at att.net
Thu May 17 18:59:22 PDT 2007


SB KEPS @ AMSAT  $ORB07137.N
2Line Orbital Elements 07137.AMSAT

HR AMSAT ORBITAL ELEMENTS FOR AMATEUR SATELLITES IN NASA FORMAT
FROM WA5QGD FORT WORTH,TX May 17, 2007
Send SUBSCRIBE KEPS/UNSUBSCRIBE KEPS to majordomo at amsat.org only
BID: ORB07137.N

DECODE 2-LINE ELSETS WITH THE FOLLOWING KEY:
1 AAAAAU 00  0  0 BBBBB.BBBBBBBB  .CCCCCCCC  00000-0  00000-0 0  DDDZ
2 AAAAA EEE.EEEE FFF.FFFF GGGGGGG HHH.HHHH III.IIII JJ.JJJJJJJJKKKKKZ
KEY: A-CATALOGNUM B-EPOCHTIME C-DECAY D-ELSETNUM E-INCLINATION F-RAAN
G-ECCENTRICITY H-ARGPERIGEE I-MNANOM J-MNMOTION K-ORBITNUM Z-CHECKSUM

TO ALL RADIO AMATEURS BT

AO-07
1 07530U 74089B   07136.77754277 -.00000028  00000-0  10000-3 0  8765
2 07530 101.5165 175.7072 0011955 318.4721 041.5438 12.53572532487180
AO-10
1 14129U 83058B   07135.51427658  .00000013  00000-0  10000-3 0  3807
2 14129 026.5782 276.9597 6059797 022.3278 355.4363 02.05868670179896
UO-11
1 14781U 84021B   07136.81088919 -.00000248  00000-0 -25764-4 0  3737
2 14781 098.1905 158.9058 0007987 274.4562 085.5728 14.79548189245093
RS-15
1 23439U 94085A   07133.92510430 -.00000039  00000-0  10597-3 0 00590
2 23439 064.8185 062.3259 0160502 196.9121 162.6413 11.27551944509832
FO-29
1 24278U 96046B   07136.84792132  .00000039  00000-0  74458-4 0  5036
2 24278 098.5490 100.7075 0351033 164.3939 196.8359 13.52930610530661
SO-33
1 25509U 98061B   07136.94951511  .00000098  00000-0  68245-5 0  9286
2 25509 031.4296 042.3567 0355130 154.3629 207.5068 14.28167095446782
AO-40
1 26609U 00072B   07137.28550273 -.00000155  00000-0  10000-3 0  8784
2 26609 005.3262 146.9932 7990268 316.9085 002.8916 01.25587508 30055
VO-52
1 28650U 05017B   07136.90164970  .00000307  00000-0  45909-4 0  6287
2 28650 097.8322 208.3161 0027394 358.1687 001.9440 14.81311329109784
PO-63
1 29712U 07001D   07137.54440852  .00000543  00000-0  79184-4 0  3695
2 29712 097.9227 197.1268 0013219 224.8450 135.1694 14.79679358 18809
AO-16
1 20439U 90005D   07136.92212652  .00000035  00000-0  28247-4 0   354
2 20439 098.1950 133.2033 0010006 283.4836 076.5225 14.31759748904074
LO-19
1 20442U 90005G   07137.10557050 -.00000011  00000-0  10922-4 0  9628
2 20442 098.1790 142.7686 0010968 281.4412 078.5536 14.32000198904249
AO-27
1 22825U 93061C   07136.48402511 -.00000079  00000-0 -14931-4 0  6852
2 22825 098.3290 107.7516 0008449 003.6110 356.5131 14.29207727710963
IO-26
1 22826U 93061D   07137.44676085  .00000019  00000-0  23820-4 0  3822
2 22826 098.3215 109.7561 0009220 356.9453 003.1677 14.29454416711189
PO-28
1 22829U 93061G   07136.92804688 -.00000022  00000-0  74652-5 0  6591
2 22829 098.3097 110.4307 0009421 331.5530 028.5124 14.30153918711346
GO-32
1 25397U 98043D   07137.15435640  .00000022  00000-0  28201-4 0  3025
2 25397 098.4158 185.7220 0001133 008.9745 351.1436 14.23125389459749
MO-46
1 26548U 00057D   07135.41403069  .00000035  00000-0  22264-4 0  7941
2 26548 064.5561 284.0523 0019628 201.1498 158.8818 14.83135973358671
NO-44
1 26931U 01043C   07136.46369965  .00000118  00000-0  78598-4 0  5878
2 26931 067.0535 229.2060 0007520 271.4353 088.5863 14.29484561293566
SO-50
1 27607U 02058C   07135.42853664  .00000046  00000-0  29285-4 0  3120
2 27607 064.5583 184.4937 0050199 009.3976 350.8043 14.71255980236308
CO-55
1 27844U 03031E   07137.67568492  .00000063  00000-0  49723-4 0   299
2 27844 098.7190 146.3960 0009662 174.2461 185.8830 14.20510685201141
CO-57
1 27848U 03031J   07137.55147087  .00000055  00000-0  46139-4 0  9897
2 27848 098.7180 145.4795 0009505 178.3924 181.7293 14.20329873201106
AO-51
1 28375U 04025K   07137.17319367  .00000022  00000-0  19759-4 0  8168
2 28375 098.1154 178.0864 0083435 277.1715 081.9995 14.40566546151247
CO-56
1 28941U 06005C   07136.73545597  .00019573  24147-5  20466-3 0  4373
2 28941 098.1317 194.3426 0230009 024.7811 336.4273 15.38850327 68599
HO-59
1 29484U 06041F   07137.64567198  .00041430  29117-5  29160-3 0  3297
2 29484 098.2862 182.8070 0215272 015.7570 345.0210 15.49247037 36347
NO-60
1 29661U 06055C   07137.73665623  .00330226  67561-4  27956-3 0  2738
2 29661 051.6345 244.6994 0007980 306.9810 053.0481 16.12945067 23545
NO-61
1 29664U 06055F   07137.20317075  .00026698  11362-4  99342-4 0  1706
2 29664 051.6327 255.5065 0012545 224.0356 135.9738 15.89627557 23220
CP4
1 31122U 07012F   07136.41728986  .00000599  00000-0  14251-3 0   373
2 31122 098.0861 210.7199 0087281 123.6862 237.2636 14.55001005  4235
CP3
1 31128U 07012M   07136.75647157 -.00000046  00000-0  00000 0 0   287
2 31128 098.0813 210.9024 0103833 122.4376 238.6900 14.51831511  4267
LIBERT
1 31129U 07012N   07137.16827526  .00000386  00000-0  10000-3 0   814
2 31129 098.0852 211.3035 0103676 121.2484 239.8848 14.51918920  4309
NOAA-10
1 16969U 86073A   07137.45872363 -.00000038  00000-0  26443-5 0  6602
2 16969 098.7453 154.6214 0011446 256.8634 103.1278 14.27324537 74845
NOAA-11
1 19531U 88089A   07137.29825549  .00000220  00000-0  13681-3 0  6560
2 19531 098.8105 226.8449 0012392 116.8064 243.4401 14.14845979961781
NOAA-12
1 21263U 91032A   07137.34974418 -.00000085  00000-0 -16969-4 0  1528
2 21263 098.7508 134.6430 0012567 192.6124 167.4726 14.25527277831850
MET-3/5
1 21655U 91056A   07137.70857865  .00000051  00000-0  10000-3 0  2661
2 21655 082.5537 024.4745 0012542 289.2889 070.6876 13.17011407757397
MET-2/21
1 22782U 93055A   07137.34586513 -.00000070  00000-0 -76815-4 0  8265
2 22782 082.5481 066.3803 0021566 326.6757 033.3048 13.83615623692256
OKEAN-4
1 23317U 94066A   07136.72756917  .00000191  00000-0  20691-4 0  2628
2 23317 082.5380 325.8893 0022473 001.1227 359.0002 14.82500688679398
NOAA-14
1 23455U 94089A   07137.43401932  .00000235  00000-0  14808-3 0  6365
2 23455 098.9902 203.4515 0009573 181.5865 178.5275 14.13719268638291
SICH-1
1 23657U 95046A   07137.08437538  .00000164  00000-0  17884-4 0   661
2 23657 082.5253 106.4902 0023756 350.0938 009.9800 14.81481348631427
NOAA-15
1 25338U 98030A   07137.33951419 -.00000099  00000-0 -24492-4 0  9955
2 25338 098.5297 134.8933 0011602 117.1240 243.1138 14.24640112468296
RESURS
1 25394U 98043A   07136.73284689 -.00000001  00000-0  17611-4 0  6417
2 25394 098.4413 192.5033 0000875 323.7899 036.3221 14.24135325459878
FENGYUN1
1 25730U 99025A   07137.71126621  .00000712  00000-0  44676-3 0  1101
2 25730 098.6875 122.7348 0019727 211.7265 148.2752 14.07486171413184
OKEAN-0
1 25860U 99039A   07136.72221446  .00000062  00000-0  16681-4 0   531
2 25860 097.7306 140.4430 0001891 090.4651 269.6781 14.73451498420860
NOAA-16
1 26536U 00055A   07137.37471842 -.00000171  00000-0 -67358-4 0  4085
2 26536 099.1129 113.7831 0009648 260.2117 099.7968 14.12425089342750
NOAA-17
1 27453U 02032A   07137.45921380  .00000026  00000-0  30205-4 0  4209
2 27453 098.5798 207.4949 0012042 178.8333 181.2883 14.23878048254340
NOAA-18
1 28654U 05018A   07137.47930208  .00000045  00000-0  49356-4 0  9552
2 28654 098.8273 079.2793 0014417 359.5612 000.5552 14.11062422102529
HUBBLE
1 20580U 90037B   07137.73921972  .00000370  00000-0  15894-4 0  8767
2 20580 028.4678 028.6639 0003939 137.8050 222.2846 15.00237294735389
UARS
1 21701U 91063B   07135.21862104  .00002860  00000-0  52734-4 0   666
2 21701 056.9735 096.9819 0098801 126.5340 234.4857 15.47864080860647
PO-34
1 25520U 98064B   07136.72852714  .00000403  00000-0  10150-4 0  7361
2 25520 028.4603 319.3023 0005461 269.4036 090.5920 15.16990986472749
ISS
1 25544U 98067A   07137.67571192  .00013944  00000-0  83959-4 0  2202
2 25544 051.6345 261.5626 0009707 192.9993 303.8722 15.77990540485952
OO-38
1 26063U 00004C   07137.02018389 -.00000006  00000-0  18377-4 0  9111
2 26063 100.2269 133.8859 0036447 247.5381 112.1945 14.35804997382578
UWE-1
1 28892U 05043C   07137.29242883  .00000086  00000-0  27849-4 0  7487
2 28892 098.1343 034.5447 0016877 205.8138 154.2235 14.59500875 82705
CO-58
1 28895U 05043F   07136.72366296  .00000151  00000-0  41476-4 0  7274
2 28895 098.1391 034.1882 0017383 207.2204 152.8102 14.59549202 82505
NCUBE2
1 28897U 05043H   07136.66486820  .00000129  00000-0  36775-4 0  2530
2 28897 098.1345 034.0889 0016590 210.0179 150.0060 14.59710703 74773
NMARS
1 29662U 06055D   07126.39603970  .07031946  12599-4  11450-3 0  2632
2 29662 051.6121 302.3682 0004459 252.1654 110.7411 16.47981436 21652
FCAL
1 29667U 06055J   07135.21942352  .00015063  00000-0  59362-4 0  1389
2 29667 051.6365 267.0415 0014366 214.2784 145.7319 15.86998147 22766
FALCON
1 30776U 07006E   07137.15969824  .00000221  00000-0  19328-4 0   531
2 30776 035.4337 040.7510 0000864 252.9825 107.0796 15.02701192 10388
MAST
1 31126U 07012K   07136.72594420  .00000395  00000-0  10000-3 0   333
2 31126 098.0828 210.9416 0095700 122.5713 238.4731 14.53339510  4281
CAPE1
1 31130U 07012P   07137.16964121  .00000016  00000-0  14395-4 0   215
2 31130 098.0834 211.3006 0104016 121.3175 239.8254 14.51849045  4117
/EX






More information about the Keps mailing list